Wind_Speed
66 68 69 70 71 72 72 73 73 74 75 75 75 75 74 74 74 74 74 75 75 75 75 76 76 77 78 78 79 79 79 80 80 81 81 82 82 82 81 81 80 80 79 79 78 77 76 76 75 75 75 75
66 67 68 70 70 71 72 73 74 75 75 76 77 77 78 77 77 77 77 77 77 77 77 77 77 78 78 79 80 80 81 81 82 82 83 83 84 84 83 83 82 82 82 81 81 80 80 79 78 78 78 78
67 67 68 70 71 71 72 73 74 75 75 76 77 78 79 80 80 80 80 80 80 80 80 79 79 79 80 80 80 81 81 82 83 83 84 85 85 86 86 85 85 84 84 83 83 83 83 82 82 81 81 80
67 68 69 70 71 72 73 73 74 74 75 77 78 79 80 80 81 82 82 83 83 83 83 83 83 82 82 82 82 83 83 83 84 84 85 85 86 87 87 87 87 86 86 86 85 85 85 85 85 85 84 83
68 69 70 71 72 73 74 74 75 75 76 76 77 78 79 80 81 82 83 84 84 85 85 85 85 85 85 86 86 86 86 86 86 86 86 86 87 87 88 88 89 89 89 89 88 88 87 88 88 88 87 87
70 70 71 72 73 74 75 75 76 77 77 78 78 79 79 80 81 82 83 84 85 85 86 86 86 87 87 87 88 88 88 89 89 89 89 89 89 89 89 90 90 91 92 92 91 91 90 90 90 90 90 90
70 71 72 73 74 75 76 77 77 78 79 80 80 80 81 81 82 82 83 84 84 85 86 87 87 88 88 88 89 89 90 90 91 92 92 92 93 93 92 92 92 93 93 94 94 95 94 94 93 93 93 93
71 72 73 74 75 76 77 78 78 79 80 81 82 83 83 84 84 84 85 85 85 86 87 87 88 89 89 90 90 90 91 91 92 92 93 94 95 95 96 96 96 96 96 96 96 97 97 98 98 98 97 97
73 74 75 76 76 77 78 78 79 80 81 82 83 84 85 86 87 87 88 88 88 89 89 89 90 90 91 91 91 92 92 92 93 93 94 95 96 97 97 98 98 99 99 99 99 100 100 100 100 101 101 101
77 77 78 78 78 79 80 80 81 81 82 83 84 85 86 87 88 89 90 91 91 92 92 93 93 93 93 94 94 94 94 95 95 95 96 96 97 97 98 99 100 100 101 101 102 102 102 103 103 103 103 104
80 80 81 81 81 82 82 83 83 84 84 85 86 86 87 88 89 90 91 92 93 94 95 95 96 96 97 97 98 98 98 98 98 99 99 99 99 99 100 100 101 102 103 103 104 104 104 105 105 106 106 106
82 83 83 83 84 84 84 85 86 86 87 87 88 88 89 90 91 92 92 93 94 95 96 97 98 99 99 100 101 101 102 102 103 103 103 103 103 103 103 104 104 104 105 106 106 106 107 107 107 108 108 109
84 85 85 85 86 86 86 87 88 88 89 89 90 90 91 92 93 94 94 95 96 97 97 98 99 100 101 102 102 103 104 105 105 106 106 107 107 108 108 108 108 108 109 109 109 110 110 110 110 110 111 111
86 87 87 87 88 88 89 90 90 91 92 92 92 92 93 94 95 95 96 97 98 98 99 100 101 102 102 103 104 105 106 107 107 108 109 109 110 111 111 112 112 113 113 113 113 114 114 114 114 114 114 114
87 88 88 89 89 90 91 92 92 93 94 94 94 94 95 96 97 97 98 98 99 100 100 101 102 103 104 105 106 107 107 108 109 110 110 111 112 113 113 114 115 116 116 117 117 118 118 118 118 118 118 118
89 89 90 90 91 92 93 94 94 95 96 97 97 96 97 98 99 99 100 100 101 101 102 103 104 105 105 106 107 108 109 110 110 111 112 112 113 114 115 116 117 118 118 119 120 121 121 122 122 123 123 123
92 92 93 93 94 94 95 96 96 97 98 99 99 99 99 100 101 101 102 102 103 104 104 105 106 107 107 108 109 110 110 111 112 112 113 114 115 116 116 117 118 119 120 121 121 122 123 124 125 126 126 127
96 97 97 97 97 98 98 98 98 99 100 101 101 101 102 102 103 103 104 104 105 106 107 108 109 110 110 111 112 112 113 113 114 115 115 116 117 118 118 119 120 121 121 122 123 124 125 125 126 127 128 129
98 99 100 100 100 101 101 101 101 101 102 103 104 104 104 105 105 105 106 106 107 108 110 110 111 112 113 114 114 115 116 116 117 118 118 119 119 120 121 122 122 123 123 124 125 125 126 127 127 128 129 130
99 100 101 101 102 103 104 104 104 104 105 106 107 107 107 107 108 108 109 109 110 111 112 113 114 115 116 116 117 118 118 119 120 120 121 122 122 123 124 125 125 126 126 127 127 128 129 129 129 130 131 131
101 102 102 103 104 105 106 106 106 106 107 109 110 111 111 110 111 111 112 113 113 114 115 116 117 117 118 119 120 121 121 122 123 123 124 125 125 126 127 128 128 129 129 130 131 131 132 132 133 133 133 134
103 105 105 106 107 108 109 109 109 109 111 112 113 114 114 114 114 115 116 116 117 117 118 120 120 121 122 122 123 124 124 125 125 126 127 128 128 129 130 130 131 132 132 133 134 134 135 136 136 136 137 137
107 108 109 110 111 112 112 112 113 113 114 115 116 117 118 118 119 119 119 120 121 122 123 124 125 125 126 127 127 128 128 129 129 130 130 131 132 132 133 133 134 135 135 136 137 137 138 139 139 139 140 140
111 111 113 114 114 115 116 116 116 117 117 118 119 120 121 122 122 122 122 123 124 124 126 127 128 128 129 129 130 130 131 131 132 133 133 133 134 134 135 135 136 137 137 138 139 139 140 141 141 141 142 143
110 111 112 113 113 114 114 114 114 114 115 115 116 116 117 119 119 118 118 118 119 119 120 121 122 123 123 124 124 125 125 126 126 127 127 128 128 128 128 129 130 131 132 133 134 135 136 137 138 139 140 141
105 105 105 106 106 106 106 106 106 106 106 106 107 107 108 109 109 109 108 108 108 109 109 110 111 111 111 112 112 113 113 114 114 115 116 116 117 117 118 118 120 121 122 123 124 125 127 128 130 131 132 133
98 98 98 98 98 98 98 98 99 98 98 99 99 99 100 100 101 100 100 100 100 100 101 102 102 103 103 103 103 104 104 105 106 106 107 108 108 109 110 111 112 114 115 116 117 118 119 121 123 124 126 127
91 91 91 91 91 91 91 92 92 92 93 93 93 93 93 94 95 95 95 95 94 95 96 97 97 98 98 98 99 99 100 100 101 101 102 103 103 104 105 106 107 109 110 111 112 113 114 116 118 119 122 123
84 84 85 86 86 86 86 86 87 88 89 89 88 88 89 90 90 91 91 91 91 91 91 93 94 94 95 95 95 95 96 96 97 98 98 99 100 101 102 102 104 105 107 108 109 110 111 112 114 115 117 119
80 80 81 81 82 82 82 83 84 85 85 84 84 85 86 87 88 88 89 89 89 88 89 90 91 92 93 93 93 93 94 95 95 96 97 98 99 101 101 102 103 104 105 107 108 109 110 111 113 113 115 116
77 77 78 79 79 79 80 81 82 83 82 82 82 83 84 85 86 87 88 88 88 88 89 89 90 92 92 93 93 94 94 95 96 97 98 99 100 101 102 102 103 104 105 106 108 109 110 111 112 113 114 115
Wind_Direction
247 247 247 247 247 247 248 249 249 249 249 249 249 250 250 250 250 250 250 250 250 250 249 249 250 250 250 250 251 251 251 251 252 252 252 253 254 255 255 255 255 254 254 254 253 253 253 253 253 253 252 252
249 249 249 249 249 249 249 250 250 251 251 251 251 251 251 251 252 252 252 251 251 251 251 250 250 250 250 250 251 251 251 251 252 252 253 253 254 254 255 255 255 255 254 254 254 253 253 253 253 253 253 253
250 250 250 250 250 250 250 251 251 251 252 252 252 252 252 253 253 253 253 254 253 253 253 253 252 252 252 251 251 251 251 251 252 252 253 253 253 254 254 255 255 255 255 254 254 253 253 252 252 252 252 252
250 250 250 251 251 251 251 251 252 252 252 252 253 253 253 253 254 254 254 255 255 255 255 255 255 254 254 253 253 253 252 252 252 252 252 253 253 253 254 254 255 255 255 255 254 254 253 252 252 252 252 252
251 251 251 251 251 251 251 251 252 252 252 253 253 253 253 253 254 254 254 255 255 256 256 256 256 256 256 255 255 255 254 254 253 253 253 253 253 253 254 254 254 254 255 255 255 255 254 253 253 252 252 252
252 252 252 252 252 252 252 252 252 252 253 253 253 254 254 254 254 254 254 255 255 256 256 256 257 257 257 257 256 256 256 256 255 255 254 254 254 254 254 254 254 254 254 254 255 255 255 254 254 253 253 252
254 254 254 253 253 253 253 253 253 253 253 253 254 254 254 254 254 255 255 255 255 256 256 256 256 257 257 257 257 257 257 256 256 256 256 255 255 255 255 255 255 255 255 254 255 255 255 255 255 254 254 253
256 256 255 255 255 255 255 254 254 254 254 254 254 254 255 255 255 255 255 255 256 256 256 256 256 257 257 257 257 257 257 257 257 257 256 256 256 255 255 255 255 255 255 255 255 255 255 255 255 255 255 254
258 258 258 257 257 257 257 257 256 256 256 256 256 256 256 256 256 256 256 256 256 256 257 257 257 257 257 257 257 257 257 257 257 257 257 257 257 256 256 256 256 256 255 255 255 255 255 255 255 255 255 255
259 259 259 259 259 259 259 259 258 258 258 258 257 257 257 257 257 257 257 257 257 257 257 257 258 258 258 258 258 258 258 258 258 258 258 258 257 257 257 257 257 256 256 256 256 256 255 255 255 255 255 255
260 260 260 260 260 260 260 260 260 259 259 259 259 259 258 258 258 258 258 258 258 258 258 258 258 258 258 258 258 258 258 259 258 258 258 258 258 258 258 257 257 257 257 257 256 256 256 256 256 255 255 255
261 261 261 261 261 261 261 261 261 260 260 260 260 260 260 259 259 259 259 259 259 259 259 259 259 259 259 259 259 259 259 259 259 259 259 259 259 259 259 258 258 258 258 257 257 257 257 257 256 256 256 256
262 263 263 263 263 263 263 263 262 262 262 261 261 261 261 261 260 260 260 260 260 260 260 260 260 260 260 260 260 260 260 260 260 260 260 260 260 260 260 259 259 259 259 258 258 257 257 257 257 257 257 256
263 263 264 264 264 264 265 264 264 264 264 263 263 263 263 263 262 262 262 261 261 261 261 261 261 261 261 261 261 261 260 260 260 260 260 260 260 260 260 260 260 260 260 260 259 259 258 258 258 257 257 257
262 263 263 263 264 264 264 265 265 265 265 265 265 265 265 264 264 264 263 263 263 263 263 262 262 262 262 262 262 262 262 261 261 261 261 261 261 260 260 260 260 260 260 260 260 260 259 259 259 258 258 258
260 261 262 262 263 263 264 264 265 265 265 266 265 265 265 265 265 265 265 265 265 264 264 264 264 263 263 263 263 263 263 262 262 262 262 262 262 261 261 261 261 261 260 260 260 260 260 260 259 259 259 258
260 260 261 262 263 263 264 265 265 265 265 266 265 265 265 265 265 265 265 265 265 265 265 265 265 264 264 264 264 264 264 264 263 263 263 263 263 262 262 262 262 261 261 261 261 260 260 260 260 260 259 259
260 261 262 262 263 264 264 265 265 265 265 265 265 265 265 265 265 265 265 265 265 265 265 265 265 265 265 265 265 265 265 265 264 264 264 264 264 263 263 263 263 262 262 262 262 261 261 261 260 260 260 260
262 262 263 263 264 264 264 264 265 265 265 265 265 265 265 265 265 265 265 265 265 265 265 265 265 265 265 265 265 265 265 265 265 265 265 265 265 264 264 264 264 263 263 263 263 262 262 262 261 261 261 261
264 264 265 265 265 265 265 265 265 266 266 266 266 265 265 265 265 265 265 265 265 265 265 265 265 265 265 265 265 265 265 266 266 266 265 265 265 265 265 265 265 264 264 264 264 263 263 263 262 262 262 261
266 266 266 267 267 267 266 266 266 267 267 267 267 267 267 267 267 267 266 266 266 266 266 266 266 266 266 266 266 266 266 266 266 266 266 266 266 266 266 266 266 265 265 265 265 265 264 264 263 263 263 262
267 267 267 267 267 267 267 267 267 268 268 268 268 268 268 268 268 268 268 268 268 268 268 268 268 267 267 267 267 267 267 267 267 267 267 267 267 266 266 266 266 266 266 266 266 265 265 265 264 264 263 263
266 266 266 267 267 267 267 268 268 268 268 269 269 269 269 269 269 269 269 269 269 269 269 269 269 269 268 268 268 268 268 268 268 268 268 268 268 268 267 267 267 267 267 267 267 266 266 266 265 265 264 264
266 266 267 267 267 268 268 268 268 268 268 269 269 269 269 269 269 269 269 269 269 269 269 269 269 269 269 269 269 269 268 268 268 268 268 268 268 268 268 268 268 268 267 267 267 267 266 266 266 266 265 265
267 267 267 268 268 268 269 269 269 269 269 269 269 269 269 269 269 269 269 269 269 269 269 269 268 269 268 268 268 268 268 268 268 268 268 268 268 268 268 268 268 267 267 267 267 267 267 266 266 266 266 265
268 268 269 269 269 269 270 270 269 269 269 269 269 269 269 269 270 269 269 269 269 269 269 269 269 269 269 269 269 269 268 268 268 268 268 268 268 268 268 268 268 267 267 267 267 267 267 267 266 266 266 266
269 269 269 270 270 270 270 270 270 270 270 269 269 269 270 270 270 270 270 269 269 269 269 269 269 269 269 269 269 269 269 269 269 269 268 268 268 268 268 268 268 268 267 267 267 267 267 267 267 266 265 265
269 270 270 270 270 270 270 270 270 270 270 270 270 270 270 270 270 270 270 270 269 269 270 270 270 270 270 269 269 269 269 269 269 269 269 269 269 269 268 268 268 268 268 268 268 267 267 267 267 267 266 266
270 270 270 270 270 270 270 270 270 270 270 270 270 270 270 270 270 270 270 270 270 270 270 270 270 270 270 270 270 270 270 270 270 271 271 271 271 270 270 270 270 270 270 270 270 269 269 269 269 269 268 268
270 270 270 270 270 270 270 270 270 270 270 271 271 271 271 271 271 271 271 271 270 270 270 271 271 272 272 272 272 272 272 272 273 273 273 273 272 272 272 272 271 271 271 271 271 270 270 269 269 269 269 269
270 270 270 271 271 271 272 271 271 272 272 272 272 272 272 272 272 272 272 272 272 272 271 272 272 272 273 273 273 273 273 273 273 273 273 273 273 273 272 272 272 271 271 271 270 270 269 269 269 269 269 269
Height
10730 10731 10731 10732 10734 10735 10736 10736 10737 10738 10739 10740 10740 10741 10742 10743 10744 10745 10746 10747 10748 10749 10750 10751 10752 10753 10754 10755 10756 10757 10758 10758 10759 10759 10760 10760 10760 10761 10762 10763 10765 10766 10767 10769 10770 10771 10772 10773 10774 10775 10776 10777
10724 10725 10725 10726 10727 10729 10729 10730 10731 10731 10732 10733 10733 10734 10735 10736 10737 10738 10739 10739 10740 10741 10743 10744 10745 10746 10747 10748 10749 10750 10751 10751 10752 10753 10753 10754 10754 10754 10755 10756 10757 10758 10760 10761 10762 10764 10765 10766 10767 10768 10769 10770
10717 10718 10719 10720 10721 10722 10722 10723 10724 10724 10725 10725 10726 10726 10727 10728 10729 10730 10731 10731 10732 10733 10734 10735 10737 10738 10739 10740 10741 10742 10743 10744 10744 10745 10746 10746 10747 10747 10748 10748 10749 10750 10751 10753 10754 10755 10757 10758 10759 10760 10761 10762
10711 10711 10712 10713 10713 10714 10715 10716 10716 10717 10717 10718 10718 10719 10720 10720 10721 10722 10723 10723 10724 10725 10726 10727 10728 10729 10730 10731 10732 10733 10734 10735 10736 10737 10738 10738 10739 10739 10740 10741 10741 10742 10743 10744 10745 10746 10748 10749 10751 10751 10752 10754
10703 10704 10705 10705 10706 10706 10707 10708 10708 10709 10709 10710 10710 10711 10712 10713 10713 10714 10714 10715 10716 10717 10717 10718 10719 10720 10721 10722 10723 10724 10725 10726 10727 10728 10729 10729 10730 10730 10731 10732 10733 10733 10734 10735 10736 10737 10739 10740 10742 10743 10744 10745
10696 10697 10697 10698 10698 10698 10699 10700 10701 10701 10701 10702 10702 10703 10703 10704 10705 10705 10706 10707 10707 10708 10709 10709 10710 10711 10712 10713 10714 10715 10715 10716 10717 10719 10719 10720 10721 10721 10722 10723 10723 10724 10725 10726 10726 10727 10729 10730 10732 10733 10735 10736
10689 10689 10690 10690 10690 10691 10691 10692 10693 10693 10694 10694 10694 10694 10694 10695 10696 10696 10697 10698 10698 10699 10700 10700 10701 10702 10702 10703 10704 10705 10705 10706 10707 10708 10709 10710 10711 10712 10713 10713 10714 10715 10715 10716 10717 10718 10719 10720 10722 10723 10725 10726
10681 10682 10682 10682 10683 10683 10683 10684 10685 10685 10686 10686 10686 10686 10686 10686 10688 10688 10688 10689 10690 10690 10690 10691 10691 10692 10693 10693 10694 10695 10695 10696 10697 10698 10699 10699 10700 10701 10702 10703 10704 10705 10705 10706 10707 10708 10709 10710 10711 10713 10714 10716
10674 10674 10674 10674 10675 10675 10675 10676 10676 10677 10677 10677 10677 10678 10678 10677 10678 10679 10679 10680 10680 10681 10681 10681 10682 10682 10683 10683 10684 10685 10685 10686 10687 10687 10688 10689 10690 10691 10692 10692 10693 10694 10695 10696 10697 10698 10699 10700 10701 10702 10703 10705
10666 10666 10665 10666 10666 10666 10666 10667 10668 10668 10669 10668 10668 10669 10669 10669 10669 10670 10670 10670 10670 10671 10671 10671 10671 10672 10673 10673 10674 10675 10675 10675 10676 10677 10677 10678 10679 10680 10681 10682 10682 10683 10684 10685 10686 10687 10688 10689 10690 10691 10692 10694
10657 10656 10656 10657 10657 10657 10658 10658 10658 10659 10659 10659 10659 10660 10660 10660 10659 10660 10660 10660 10660 10661 10661 10661 10661 10662 10662 10663 10663 10664 10664 10665 10665 10666 10666 10667 10668 10668 10670 10671 10671 10672 10672 10673 10675 10675 10676 10677 10678 10679 10680 10682
10647 10646 10647 10648 10647 10648 10649 10648 10648 10650 10649 10649 10650 10650 10650 10650 10650 10650 10650 10650 10650 10650 10650 10651 10650 10651 10652 10652 10652 10653 10653 10654 10654 10655 10655 10656 10656 10657 10658 10659 10659 10660 10660 10661 10662 10663 10664 10665 10666 10667 10668 10670
10638 10637 10638 10639 10637 10638 10639 10637 10639 10640 10639 10639 10640 10640 10640 10639 10640 10640 10640 10640 10640 10640 10640 10640 10640 10640 10640 10641 10641 10642 10642 10642 10643 10643 10644 10644 10645 10645 10645 10646 10647 10647 10648 10648 10649 10651 10652 10653 10654 10655 10656 10657
10628 10627 10629 10629 10628 10629 10628 10627 10629 10628 10627 10629 10630 10630 10629 10629 10629 10629 10630 10630 10629 10630 10630 10630 10630 10629 10629 10630 10630 10630 10630 10630 10631 10631 10632 10632 10633 10633 10633 10633 10634 10634 10635 10635 10636 10637 10638 10639 10640 10641 10642 10643
10619 10618 10619 10619 10618 10619 10618 10617 10619 10617 10615 10618 10619 10620 10619 10618 10619 10618 10619 10620 10619 10619 10619 10619 10619 10618 10618 10618 10618 10617 10617 10617 10618 10619 10619 10620 10620 10620 10620 10620 10621 10621 10622 10622 10622 10623 10624 10625 10626 10627 10628 10630
10609 10609 10610 10609 10609 10609 10608 10608 10609 10607 10605 10606 10608 10610 10609 10607 10608 10608 10608 10609 10608 10608 10607 10607 10606 10606 10606 10605 10605 10605 10605 10605 10606 10606 10607 10607 10607 10607 10607 10607 10607 10608 10608 10608 10608 10609 10609 10610 10611 10612 10613 10615
10599 10600 10600 10599 10600 10600 10598 10599 10599 10596 10595 10595 10596 10598 10597 10596 10596 10596 10596 10597 10597 10595 10595 10594 10593 10593 10593 10592 10592 10592 10592 10593 10593 10593 10593 10593 10593 10593 10593 10593 10593 10593 10594 10594 10594 10594 10595 10595 10596 10597 10597 10599
10591 10590 10590 10590 10590 10590 10589 10589 10588 10586 10584 10583 10583 10585 10585 10584 10584 10583 10584 10586 10585 10582 10581 10581 10580 10580 10580 10580 10579 10579 10579 10579 10580 10579 10579 10579 10579 10578 10579 10579 10578 10579 10579 10579 10579 10579 10580 10580 10581 10582 10582 10583
10581 10580 10578 10579 10579 10578 10577 10577 10576 10575 10573 10571 10570 10571 10571 10571 10572 10572 10572 10573 10572 10570 10569 10568 10568 10567 10567 10566 10566 10566 10565 10565 10566 10565 10565 10565 10564 10564 10564 10563 10563 10563 10564 10564 10564 10564 10564 10565 10566 10566 10567 10567
10569 10568 10567 10567 10566 10564 10563 10564 10564 10563 10562 10559 10557 10557 10558 10559 10560 10559 10558 10558 10558 10557 10556 10555 10555 10554 10553 10552 10552 10552 10551 10551 10551 10551 10550 10549 10549 10549 10548 10548 10547 10547 10548 10548 10548 10548 10548 10549 10550 10550 10550 10551
10557 10556 10555 10554 10553 10550 10549 10551 10552 10552 10550 10546 10543 10543 10545 10547 10547 10545 10544 10544 10544 10544 10542 10540 10540 10540 10539 10538 10538 10537 10537 10537 10536 10536 10535 10534 10534 10534 10533 10532 10531 10531 10532 10531 10531 10531 10531 10531 10532 10533 10533 10534
10545 10543 10542 10540 10539 10537 10536 10538 10540 10539 10537 10533 10531 10530 10531 10533 10533 10531 10530 10530 10530 10530 10528 10525 10525 10525 10524 10523 10523 10523 10522 10522 10521 10520 10519 10519 10518 10518 10517 10516 10515 10515 10515 10514 10513 10513 10512 10512 10513 10514 10514 10515
10532 10530 10528 10527 10527 10526 10525 10526 10527 10526 10524 10521 10519 10517 10516 10516 10517 10518 10517 10517 10516 10514 10513 10510 10508 10508 10508 10507 10507 10507 10506 10506 10505 10504 10504 10503 10502 10502 10501 10499 10498 10498 10497 10496 10495 10494 10493 10493 10493 10494 10495 10495
10520 10519 10516 10515 10514 10513 10513 10513 10513 10513 10510 10508 10506 10504 10501 10499 10501 10504 10504 10502 10501 10499 10496 10494 10492 10492 10492 10491 10490 10490 10489 10488 10488 10487 10486 10485 10485 10485 10484 10482 10480 10479 10479 10478 10476 10476 10474 10473 10473 10474 10475 10475
10507 10506 10504 10503 10501 10500 10499 10499 10499 10498 10496 10494 10492 10489 10486 10483 10485 10488 10488 10487 10485 10482 10480 10478 10476 10476 10475 10474 10473 10472 10471 10470 10470 10469 10468 10467 10467 10467 10466 10464 10462 10461 10460 10458 10457 10457 10455 10454 10454 10455 10455 10454
10493 10492 10492 10491 10489 10487 10486 10485 10483 10483 10482 10480 10477 10475 10472 10470 10470 10471 10472 10472 10470 10466 10464 10463 10461 10460 10460 10459 10457 10457 10455 10454 10453 10452 10451 10451 10450 10450 10449 10447 10445 10443 10442 10441 10440 10439 10438 10436 10436 10437 10437 10435
10480 10479 10479 10478 10476 10475 10473 10471 10469 10469 10467 10465 10464 10463 10461 10458 10457 10457 10457 10456 10455 10453 10450 10448 10446 10446 10445 10444 10443 10442 10441 10439 10438 10437 10436 10435 10435 10434 10433 10431 10429 10427 10426 10425 10423 10423 10421 10419 10417 10417 10418 10418
10469 10468 10467 10465 10464 10463 10462 10459 10457 10456 10453 10452 10453 10452 10449 10446 10444 10443 10442 10442 10443 10441 10437 10435 10433 10432 10432 10431 10429 10428 10426 10425 10423 10422 10421 10421 10420 10419 10417 10416 10414 10412 10410 10408 10407 10407 10406 10403 10400 10397 10397 10399
10458 10457 10455 10453 10453 10452 10450 10448 10446 10443 10441 10441 10443 10441 10438 10435 10432 10430 10429 10429 10430 10429 10426 10423 10420 10418 10418 10417 10415 10414 10412 10410 10409 10407 10406 10406 10405 10403 10402 10401 10399 10397 10394 10392 10391 10390 10389 10387 10385 10382 10380 10379
10448 10447 10444 10443 10442 10440 10439 10437 10434 10431 10431 10432 10431 10428 10426 10423 10420 10418 10417 10417 10417 10416 10414 10411 10407 10405 10403 10403 10402 10399 10398 10396 10395 10393 10392 10390 10389 10387 10387 10386 10384 10382 10379 10376 10375 10373 10371 10369 10368 10367 10365 10363
10437 10436 10434 10432 10431 10429 10427 10425 10422 10421 10421 10422 10419 10416 10414 10411 10408 10407 10405 10404 10403 10402 10401 10399 10396 10392 10390 10389 10387 10386 10385 10383 10381 10379 10376 10375 10373 10371 10371 10370 10368 10366 10363 10361 10358 10356 10354 10352 10351 10349 10348 10346